Time,TemperatureF,DewpointF,PressureIn,WindDirection,WindDirectionDegrees,WindSpeedMPH,WindSpeedGustMPH,Humidity,HourlyPrecipIn,Conditions,Clouds,dailyrainin,SolarRadiationWatts/m^2,SoftwareType,DateUTC
2013-09-06 00:21:00,61.0,59.0,-100.00,North,1,5.0,9.0,92,0.00,,,0.07,0.000000,,2013-09-06 06:21:00,
2013-09-06 00:32:00,61.0,59.0,-100.00,North,1,5.0,9.0,92,0.00,,,0.07,0.000000,,2013-09-06 06:32:00,
2013-09-06 00:42:00,61.0,59.0,-100.00,North,1,5.0,9.0,92,0.00,,,0.07,0.000000,,2013-09-06 06:42:00,
2013-09-06 00:52:00,61.0,59.0,-100.00,North,1,5.0,9.0,92,0.00,,,0.07,0.000000,,2013-09-06 06:52:00,
2013-09-06 01:23:00,59.0,58.0,-100.00,NW,306,4.0,7.0,96,0.00,,,0.07,0.000000,,2013-09-06 07:23:00,
2013-09-06 01:32:00,59.0,58.0,-100.00,NW,306,4.0,7.0,96,0.00,,,0.07,0.000000,,2013-09-06 07:32:00,
2013-09-06 01:42:00,59.0,58.0,-100.00,NW,306,4.0,7.0,96,0.00,,,0.07,0.000000,,2013-09-06 07:42:00,
2013-09-06 01:52:00,59.0,58.0,-100.00,NW,306,4.0,7.0,96,0.00,,,0.07,0.000000,,2013-09-06 07:52:00,
2013-09-06 02:22:00,58.0,57.0,-100.00,NNE,33,2.0,9.0,95,0.00,,,0.07,0.000000,,2013-09-06 08:22:00,
2013-09-06 02:32:00,58.0,57.0,-100.00,NNE,33,2.0,9.0,95,0.00,,,0.07,0.000000,,2013-09-06 08:32:00,
2013-09-06 02:42:00,58.0,57.0,-100.00,NNE,33,2.0,9.0,95,0.00,,,0.07,0.000000,,2013-09-06 08:42:00,
2013-09-06 02:52:00,58.0,57.0,-100.00,NNE,33,2.0,9.0,95,0.00,,,0.07,0.000000,,2013-09-06 08:52:00,
2013-09-06 03:22:00,59.0,58.0,-100.00,NNW,331,7.0,13.0,96,0.00,,,0.07,0.000000,,2013-09-06 09:22:00,
2013-09-06 03:33:00,59.0,58.0,-100.00,NNW,331,7.0,13.0,96,0.00,,,0.07,0.000000,,2013-09-06 09:33:00,
2013-09-06 03:43:00,59.0,58.0,-100.00,NNW,331,7.0,13.0,96,0.00,,,0.07,0.000000,,2013-09-06 09:43:00,
2013-09-06 03:53:00,59.0,58.0,-100.00,NNW,331,7.0,13.0,96,0.00,,,0.07,0.000000,,2013-09-06 09:53:00,
2013-09-06 04:23:00,56.0,55.0,-100.00,North,355,3.0,10.0,98,0.00,,,0.07,0.000000,,2013-09-06 10:23:00,
2013-09-06 04:32:00,56.0,55.0,-100.00,North,355,3.0,10.0,98,0.00,,,0.07,0.000000,,2013-09-06 10:32:00,
2013-09-06 04:42:00,56.0,55.0,-100.00,North,355,3.0,10.0,98,0.00,,,0.07,0.000000,,2013-09-06 10:42:00,
2013-09-06 04:53:00,56.0,55.0,-100.00,North,355,3.0,10.0,98,0.00,,,0.07,0.000000,,2013-09-06 10:53:00,
2013-09-06 05:22:00,56.0,56.0,-100.00,West,267,2.0,6.0,99,0.00,,,0.07,0.000000,,2013-09-06 11:22:00,
2013-09-06 05:33:00,56.0,56.0,-100.00,West,267,2.0,6.0,99,0.00,,,0.07,0.000000,,2013-09-06 11:33:00,
2013-09-06 05:42:00,56.0,56.0,-100.00,West,267,2.0,6.0,99,0.00,,,0.07,0.000000,,2013-09-06 11:42:00,
2013-09-06 05:52:00,56.0,56.0,-100.00,West,267,2.0,6.0,99,0.00,,,0.07,0.000000,,2013-09-06 11:52:00,
2013-09-06 06:21:00,55.0,55.0,-100.00,NE,45,2.0,7.0,99,0.01,,,0.08,0.000000,,2013-09-06 12:21:00,
2013-09-06 06:32:00,55.0,55.0,-100.00,NE,45,2.0,7.0,99,0.01,,,0.08,0.000000,,2013-09-06 12:32:00,
2013-09-06 06:42:00,55.0,55.0,-100.00,NE,45,2.0,7.0,99,0.01,,,0.08,0.000000,,2013-09-06 12:42:00,
2013-09-06 06:52:00,55.0,55.0,-100.00,NE,45,2.0,7.0,99,0.01,,,0.08,0.000000,,2013-09-06 12:52:00,
2013-09-06 07:22:00,56.0,56.0,-100.00,NW,312,5.0,7.0,99,0.00,,,0.08,0.000000,,2013-09-06 13:22:00,
2013-09-06 07:32:00,56.0,56.0,-100.00,NW,312,5.0,7.0,99,0.00,,,0.08,0.000000,,2013-09-06 13:32:00,
2013-09-06 07:42:00,56.0,56.0,-100.00,NW,312,5.0,7.0,99,0.00,,,0.08,0.000000,,2013-09-06 13:42:00,
2013-09-06 07:52:00,56.0,56.0,-100.00,NW,312,5.0,7.0,99,0.00,,,0.08,0.000000,,2013-09-06 13:52:00,
2013-09-06 08:22:00,57.0,56.0,-100.00,ESE,108,2.0,9.0,98,0.00,,,0.08,34.000000,,2013-09-06 14:22:00,
2013-09-06 08:32:00,57.0,56.0,-100.00,ESE,108,2.0,9.0,98,0.00,,,0.08,34.000000,,2013-09-06 14:32:00,
2013-09-06 08:42:00,57.0,56.0,-100.00,ESE,108,2.0,9.0,98,0.00,,,0.08,34.000000,,2013-09-06 14:42:00,
2013-09-06 08:52:00,57.0,56.0,-100.00,ESE,108,2.0,9.0,98,0.00,,,0.08,34.000000,,2013-09-06 14:52:00,
2013-09-06 09:22:00,58.0,57.0,-100.00,WSW,254,2.0,4.0,97,0.00,,,0.05,95.000000,,2013-09-06 15:22:00,
2013-09-06 09:34:00,58.0,57.0,-100.00,WSW,254,2.0,4.0,97,0.00,,,0.05,95.000000,,2013-09-06 15:34:00,
2013-09-06 09:43:00,58.0,57.0,-100.00,WSW,254,2.0,4.0,97,0.00,,,0.05,95.000000,,2013-09-06 15:43:00,
2013-09-06 09:53:00,58.0,57.0,-100.00,WSW,254,2.0,4.0,97,0.00,,,0.05,95.000000,,2013-09-06 15:53:00,
2013-09-06 10:24:00,61.0,58.0,-100.00,NW,310,4.0,6.0,90,0.00,,,0.05,158.000000,,2013-09-06 16:24:00,
2013-09-06 10:33:00,61.0,58.0,-100.00,NW,310,4.0,6.0,90,0.00,,,0.05,158.000000,,2013-09-06 16:33:00,
2013-09-06 10:42:00,61.0,58.0,-100.00,NW,310,4.0,6.0,90,0.00,,,0.05,158.000000,,2013-09-06 16:42:00,
2013-09-06 10:53:00,61.0,58.0,-100.00,NW,310,4.0,6.0,90,0.00,,,0.05,158.000000,,2013-09-06 16:53:00,
2013-09-06 11:24:00,64.0,60.0,-100.00,SSW,211,4.0,7.0,88,0.00,,,0.05,227.000000,,2013-09-06 17:24:00,
2013-09-06 11:34:00,64.0,60.0,-100.00,SSW,211,4.0,7.0,88,0.00,,,0.05,227.000000,,2013-09-06 17:34:00,
2013-09-06 11:43:00,64.0,60.0,-100.00,SSW,211,4.0,7.0,88,0.00,,,0.05,227.000000,,2013-09-06 17:43:00,
2013-09-06 11:53:00,64.0,60.0,-100.00,SSW,211,4.0,7.0,88,0.00,,,0.05,227.000000,,2013-09-06 17:53:00,
2013-09-06 12:22:00,71.0,60.0,-100.00,SE,138,3.0,8.0,69,0.00,,,0.05,665.000000,,2013-09-06 18:22:00,
2013-09-06 12:32:00,71.0,60.0,-100.00,SE,138,3.0,8.0,69,0.00,,,0.05,665.000000,,2013-09-06 18:32:00,
2013-09-06 12:42:00,71.0,60.0,-100.00,SE,138,3.0,8.0,69,0.00,,,0.05,665.000000,,2013-09-06 18:42:00,
2013-09-06 12:52:00,71.0,60.0,-100.00,SE,138,3.0,8.0,69,0.00,,,0.05,665.000000,,2013-09-06 18:52:00,
2013-09-06 13:22:00,73.0,59.0,-100.00,South,189,4.0,8.0,61,0.00,,,0.04,615.000000,,2013-09-06 19:22:00,
2013-09-06 13:32:00,73.0,59.0,-100.00,South,189,4.0,8.0,61,0.00,,,0.04,615.000000,,2013-09-06 19:32:00,
2013-09-06 13:42:00,73.0,59.0,-100.00,South,189,4.0,8.0,61,0.00,,,0.04,615.000000,,2013-09-06 19:42:00,
2013-09-06 13:52:00,73.0,59.0,-100.00,South,189,4.0,8.0,61,0.00,,,0.04,615.000000,,2013-09-06 19:52:00,
2013-09-06 14:23:00,76.0,59.0,-100.00,NW,324,7.0,11.0,56,0.00,,,0.04,568.000000,,2013-09-06 20:23:00,
2013-09-06 14:32:00,76.0,59.0,-100.00,NW,324,7.0,11.0,56,0.00,,,0.04,568.000000,,2013-09-06 20:32:00,
2013-09-06 14:42:00,76.0,59.0,-100.00,NW,324,7.0,11.0,56,0.00,,,0.04,568.000000,,2013-09-06 20:42:00,
2013-09-06 14:52:00,76.0,59.0,-100.00,NW,324,7.0,11.0,56,0.00,,,0.04,568.000000,,2013-09-06 20:52:00,
2013-09-06 15:22:00,79.0,55.0,-100.00,SSW,213,10.0,21.0,44,0.00,,,0.04,928.000000,,2013-09-06 21:22:00,
2013-09-06 15:34:00,79.0,55.0,-100.00,SSW,213,10.0,21.0,44,0.00,,,0.04,928.000000,,2013-09-06 21:34:00,
2013-09-06 15:43:00,79.0,55.0,-100.00,SSW,213,10.0,21.0,44,0.00,,,0.04,928.000000,,2013-09-06 21:43:00,
2013-09-06 15:54:00,79.0,55.0,-100.00,SSW,213,10.0,21.0,44,0.00,,,0.04,928.000000,,2013-09-06 21:54:00,
2013-09-06 16:23:00,78.0,52.0,-100.00,NW,312,7.0,11.0,40,0.00,,,0.04,603.000000,,2013-09-06 22:23:00,
2013-09-06 16:33:00,78.0,52.0,-100.00,NW,312,7.0,11.0,40,0.00,,,0.04,603.000000,,2013-09-06 22:33:00,
2013-09-06 16:44:00,78.0,52.0,-100.00,NW,312,7.0,11.0,40,0.00,,,0.04,603.000000,,2013-09-06 22:44:00,
2013-09-06 16:53:00,78.0,52.0,-100.00,NW,312,7.0,11.0,40,0.00,,,0.04,603.000000,,2013-09-06 22:53:00,
2013-09-06 17:23:00,82.0,53.0,-100.00,West,279,7.0,12.0,37,0.00,,,0.04,474.000000,,2013-09-06 23:23:00,
2013-09-06 17:33:00,82.0,53.0,-100.00,West,279,7.0,12.0,37,0.00,,,0.04,474.000000,,2013-09-06 23:33:00,
2013-09-06 17:42:00,82.0,53.0,-100.00,West,279,7.0,12.0,37,0.00,,,0.04,474.000000,,2013-09-06 23:42:00,
2013-09-06 17:52:00,82.0,53.0,-100.00,West,279,7.0,12.0,37,0.00,,,0.04,474.000000,,2013-09-06 23:52:00,
2013-09-06 18:22:00,82.0,49.0,-100.00,WNW,294,7.0,14.0,32,0.00,,,0.04,580.000000,,2013-09-07 00:22:00,
2013-09-06 18:32:00,82.0,49.0,-100.00,WNW,294,7.0,14.0,32,0.00,,,0.04,580.000000,,2013-09-07 00:32:00,
2013-09-06 18:42:00,82.0,49.0,-100.00,WNW,294,7.0,14.0,32,0.00,,,0.04,580.000000,,2013-09-07 00:42:00,
2013-09-06 18:52:00,82.0,49.0,-100.00,WNW,294,7.0,14.0,32,0.00,,,0.04,580.000000,,2013-09-07 00:52:00,
2013-09-06 19:21:00,75.0,48.0,-100.00,NNW,332,3.0,11.0,38,0.00,,,0.04,120.000000,,2013-09-07 01:21:00,
2013-09-06 19:32:00,75.0,48.0,-100.00,NNW,332,3.0,11.0,38,0.00,,,0.04,120.000000,,2013-09-07 01:32:00,
2013-09-06 19:42:00,75.0,48.0,-100.00,NNW,332,3.0,11.0,38,0.00,,,0.04,120.000000,,2013-09-07 01:42:00,
2013-09-06 19:53:00,75.0,48.0,-100.00,NNW,332,3.0,11.0,38,0.00,,,0.04,120.000000,,2013-09-07 01:53:00,
2013-09-06 20:23:00,74.0,48.0,-100.00,NNW,330,4.0,9.0,40,0.00,,,0.04,56.000000,,2013-09-07 02:23:00,
2013-09-06 20:32:00,74.0,48.0,-100.00,NNW,330,4.0,9.0,40,0.00,,,0.04,56.000000,,2013-09-07 02:32:00,
2013-09-06 20:42:00,74.0,48.0,-100.00,NNW,330,4.0,9.0,40,0.00,,,0.04,56.000000,,2013-09-07 02:42:00,
2013-09-06 20:52:00,74.0,48.0,-100.00,NNW,330,4.0,9.0,40,0.00,,,0.04,56.000000,,2013-09-07 02:52:00,
2013-09-06 21:23:00,72.0,47.0,-100.00,WSW,250,3.0,10.0,41,0.00,,,0.04,1.000000,,2013-09-07 03:23:00,
2013-09-06 21:34:00,72.0,47.0,-100.00,WSW,250,3.0,10.0,41,0.00,,,0.04,1.000000,,2013-09-07 03:34:00,
2013-09-06 21:44:00,72.0,47.0,-100.00,WSW,250,3.0,10.0,41,0.00,,,0.04,1.000000,,2013-09-07 03:44:00,
2013-09-06 21:54:00,72.0,47.0,-100.00,WSW,250,3.0,10.0,41,0.00,,,0.04,1.000000,,2013-09-07 03:54:00,
2013-09-06 22:23:00,69.0,47.0,-100.00,West,269,4.0,8.0,46,0.00,,,0.04,0.000000,,2013-09-07 04:23:00,
2013-09-06 22:34:00,69.0,47.0,-100.00,West,269,4.0,8.0,46,0.00,,,0.04,0.000000,,2013-09-07 04:34:00,
2013-09-06 22:43:00,69.0,47.0,-100.00,West,269,4.0,8.0,46,0.00,,,0.04,0.000000,,2013-09-07 04:43:00,
2013-09-06 22:54:00,69.0,47.0,-100.00,West,269,4.0,8.0,46,0.00,,,0.04,0.000000,,2013-09-07 04:54:00,
2013-09-06 23:23:00,68.0,46.0,-100.00,WNW,298,3.0,10.0,46,0.00,,,0.01,0.000000,,2013-09-07 05:23:00,
2013-09-06 23:33:00,68.0,46.0,-100.00,WNW,298,3.0,10.0,46,0.00,,,0.01,0.000000,,2013-09-07 05:33:00,
2013-09-06 23:42:00,68.0,46.0,-100.00,WNW,298,3.0,10.0,46,0.00,,,0.01,0.000000,,2013-09-07 05:42:00,
2013-09-06 23:52:00,68.0,46.0,-100.00,WNW,298,3.0,10.0,46,0.00,,,0.01,0.000000,,2013-09-07 05:52:00,